Regional Weather Roundup
Issued by NWS

Home | Current Version | Previous Version | Text Only | Print | Product List | Glossary Off
Versions: 1 2 3 4 5 6 7 8 9 10 11 12 13 14 15 16 17 18 19 20 21 22 23 24 25 26 27 28 29 30 31 32 33 34 35 36 37 38 39 40 41 42 43 44 45 46 47 48 49 50

000
ASUS45 KBOU 292010
RWRCO

WEATHER ROUNDUP FOR COLORADO
NATIONAL WEATHER SERVICE DENVER/BOULDER CO
200 PM MDT MON JUN 29 2015

NOTE: "FAIR" INDICATES FEW OR NO CLOUDS BELOW 12000 FEET WITH NO
SIGNIFICANT WEATHER AND/OR OBSTRUCTIONS TO VISIBILITY.

COZ001>005-013-030-031-292100-
...NORTHWEST COLORADO...

CITY           SKY/WX    TMP DP  RH WIND       PRES   REMARKS
CRAIG          SUNNY     90  43  19 SE6       30.25F
HAYDEN         SUNNY     84  39  20 NE6       30.28F
MEEKER         SUNNY     89  42  19 E9G18     30.27F
MOUNT WERNER   NOT AVBL
STEAMBOAT SPGS SUNNY     84  43  23 W7        30.31F
WALDEN         PTSUNNY   73  37  27 CALM      30.43S
$$

COZ006>008-011-292100-
...WEST CENTRAL VALLEYS...

CITY           SKY/WX    TMP DP  RH WIND       PRES   REMARKS
GRAND JUNCTION SUNNY     94  44  17 SW8       30.11F
MONTROSE       SUNNY     91  42  18 CALM      30.21F
EAGLE          MOSUNNY   86  41  20 CALM      30.28F
RIFLE          SUNNY     93  43  17 VRB5      30.16F
DELTA          SUNNY     97  42  15 SE7       30.15F
NUCLA          SUNNY     90  36  14 NW7       30.25F
$$

COZ017>023-064>068-292100-
...SOUTHWEST COLORADO...

CITY           SKY/WX    TMP DP  RH WIND       PRES   REMARKS
DURANGO        MOSUNNY   86  41  20 SW8G16    30.25F
CORTEZ         SUNNY     91  42  18 VRB5      30.21F
PAGOSA SPRINGS MOSUNNY   82  37  19 SW3       30.35F
TELLURIDE      PTSUNNY   75  40  29 NW8       30.51S
WOLF CREEK PAS NOT AVBL
$$

COZ009-010-012-014-032>034-037-058>063-292100-
...CENTRAL COLORADO...

CITY           SKY/WX    TMP DP  RH WIND       PRES   REMARKS
ASPEN          SUNNY     84  41  21 N8        30.36F
BUENA VISTA    MOSUNNY   80  38  22 N5        30.36F
COPPER MTN     PTSUNNY   64  30  27 W12G20    30.74S
BERTHOUD PASS  PTSUNNY   48  39  71 E13G29    30.80R
COTTONWOOD PAS NOT AVBL
GUNNISON       MOSUNNY   82  45  26 SW3       30.37F
KREMMLING      SUNNY     86  27  11 W9        30.36S
LEADVILLE      MOSUNNY   74  27  17 N14G24    30.53S
MONARCH PASS   TSTM      57  45  62 CALM      30.82S
SALIDA         MOSUNNY   84  44  23 E12G22    30.40F
SUNLIGHT       SUNNY     68  43  40 NW5       30.67S
WILKERSON PASS PTSUNNY   61  37  41 NE6G16    30.70S
$$

COZ069>075-292100-
...SAN LUIS VALLEY/SANGRE DE CRISTO MOUNTAINS...

CITY           SKY/WX    TMP DP  RH WIND       PRES   REMARKS
ALAMOSA        SUNNY     80  45  28 NE7       30.34F
LA VETA PASS   MOSUNNY   68  43  40 MISG      30.58S
SAGUACHE       PTSUNNY   75  46  35 SW5       30.37F THUNDER
$$

COZ035-036-038>040-292100-
...NORTHERN COLORADO FRONT RANGE...

CITY           SKY/WX    TMP DP  RH WIND       PRES   REMARKS
DENVER INTL AP MOSUNNY   85  50  29 N8        30.24F
DMNS CITY PARK   N/A     84  48  29 NE6G15    30.24S
AURORA         MOSUNNY   84  53  33 N8        30.26F
FRONT RANGE AP MOSUNNY   82  54  36 N7        30.26F
ERIE MUNI ARPT SUNNY     86  47  25 CALM      30.23S
BOULDER MUN AP SUNNY     82  50  32 SE3       30.24S
CENTENNIAL     MOSUNNY   83  51  33 N7        30.27F
BROOMFIELD     MOSUNNY   84  48  28 VRB5      30.28F
FORT COLLINS   SUNNY     88  54  31 E7        30.21F
LONGMONT       SUNNY     90  50  25 E6        30.24F
$$

COZ041-046-047-076>085-087-088-292100-
...PIKES PEAK/PALMER DIVIDE AND SOUTHERN FOOTHILLS...

CITY           SKY/WX    TMP DP  RH WIND       PRES   REMARKS
COLO. SPRINGS  MOSUNNY   79  53  40 SW6       30.31F
A. F. ACADEMY  MOSUNNY   79  49  34 VRB6      30.31F
ELLICOTT       SUNNY    N/A N/A N/A SW8       30.30F
FALCON         SUNNY     79  50  35 CALM      30.37F
FORT CARSON    MOSUNNY   79  55  43 E8        30.28F
LIMON          SUNNY     80  56  43 W7        30.25F
MONUMENT HILL  SUNNY     73  50  43 N3        30.38S
TRINIDAD       MOSUNNY   88  45  22 E13       30.25F
$$

COZ042>045-048>051-090-091-292100-
...NORTHEAST COLORADO...

CITY           SKY/WX    TMP DP  RH WIND       PRES   REMARKS
GREELEY ARPT   SUNNY     88  52  29 CALM      30.20F
AKRON          MOSUNNY   84  55  36 NW8       30.19S
BURLINGTON     MOSUNNY   83  50  31 W9        30.18S
WRAY           PTSUNNY   90  50  25 NW5       30.12F
STERLING       MOSUNNY   90  57  33 S6        30.13F
HOLYOKE        PTSUNNY   88  52  29 SW3       30.13F
FORT MORGAN    MOSUNNY   88 -21   1 E7        30.19F
$$

COZ086-089-092>099-292100-
...SOUTHEAST COLORADO...

CITY           SKY/WX    TMP DP  RH WIND       PRES   REMARKS
PUEBLO         MOSUNNY   87  53  31 SE9       30.19F
LA JUNTA       MOSUNNY   84  54  35 S16       30.17F
LAMAR          PTSUNNY   85  56  37 S12       30.14R
SPRINGFIELD      N/A     76  51  41 N7        30.22S
$$


USA.gov is the U.S. government's official web portal to all federal, state and local government web resources and services.